Weather in Gereykhanovskoye

Russia / Republic of Dagestan     41°42′04″N   48°16′52″E
temp.,
°C
wind,
m/s
gust,
m/s
humid.,
%
clouds,
%
prec.,
mm/h
press.,
hPa
HPBL,
m
9 may, sun
sun900:00+12ssw118669 0.0 101211
03:00+11sse01855 0.0 101011
06:00+15wsw00660 0.0 100835
09:00+20ene21530 0.0 1007453
12:00+23ene324711 0.0 1005787
15:00+23nne4349100 0.0 1004616
18:00+18n576699 0.0 1006330
21:00+15ene1286100 0.3 101176
10 may, mon
mon1000:00+12ene3394100 0.1 1013408
03:00+8ene1295100 4.4 1016350
06:00+7sse3389100 3.8 1019512
09:00+6nne3389100 10.4 1022472
12:00+7wsw2485100 2.6 1022571
15:00+12ne235944 3.0 10211188
18:00+11sse226234 0.0 1021412
21:00+10sw3366100 0.0 102282
11 may, tue
tue1100:00+8wsw337175 0.0 102229
03:00+7wsw33665 0.0 102123
06:00+10sw23596 0.0 102188
09:00+14ese56465 0.0 10191316
12:00+15ese555069 0.0 10181493
15:00+14ese655974 0.0 10171061
18:00+12e337239 0.0 1017456
21:00+7wsw11913 0.0 101810
12 may, wed
wed1200:00+7wsw11890 0.0 101711
03:00+7nnw11890 0.0 101710
06:00+10wnw12780 0.0 1017115
09:00+15nne22600 0.0 1016726
12:00+18ne43551 0.0 10161040
15:00+18ne32613 0.0 1016735
18:00+14ne22752 0.0 1017224
21:00+10w00890 0.0 101810
13 may, thu
thu1300:00+11sw11880 0.0 101711
03:00+11ssw11852 0.0 101610
06:00+14ssw11770 0.0 101668
09:00+20e21620 0.0 1016547
12:00+22ene42590 0.0 1015908
15:00+22ene42613 0.0 1015707
18:00+18ene22754 0.0 1015139
21:00+14sse11894 0.0 101611